Regional Weather Roundup
Issued by NWS

Home | Current Version | Previous Version | Text Only | Print | Product List | Glossary Off
Versions: 1 2 3 4 5 6 7 8 9 10 11 12 13 14 15 16 17 18 19 20 21 22 23 24 25 26 27 28 29 30 31 32 33 34 35 36 37 38 39 40 41 42 43 44 45 46 47 48 49 50

000
ASUS43 KMPX 290310
RWRMN
WEATHER ROUNDUP FOR MINNESOTA
NATIONAL WEATHER SERVICE TWIN CITIES/CHANHASSEN MN
1000 PM CDT SAT MAR 28 2015


NOTE: "FAIR" INDICATES FEW OR NO CLOUDS BELOW 12,000 FEET WITH NO
SIGNIFICANT WEATHER AND/OR OBSTRUCTIONS TO VISIBILITY. N/A MEANS
CURRENT SKY AND/OR WEATHER CONDITIONS ARE NOT AVAILABLE.

MNZ060>063-068>070-290400-
   Twin Cities Metro

CITY           SKY/WX    TMP DP  RH WIND       PRES   REMARKS
TWIN CITIES    CLOUDY    36  22  56 SE13      30.01F
ST PAUL        PTCLDY    35  22  58 SE15      30.03F WCI  25
CRYSTAL        MOCLDY    37  22  54 S14       29.98F
BLAINE         PTCLDY    37  23  56 SE13      29.98F
LAKEVILLE      PTCLDY    32  25  74 SE7       30.02F WCI  26
EDEN PRAIRIE   MOCLDY    36  23  59 SE15      29.98F
SOUTH ST PAUL  PTCLDY    36  22  56 S9        30.03F
LAKE ELMO      FAIR      34  23  64 SE13      30.03F WCI  25
$$
MNZ001>005-007-008-013>017-022>024-027-028-290400-
   Northwest Minnesota

CITY           SKY/WX    TMP DP  RH WIND       PRES   REMARKS
BEMIDJI        PTCLDY    37  26  66 S20G28    29.74F
HALLOCK        MOCLDY    43  30  61 S21       29.61R
ROSEAU         CLOUDY    39  30  70 S22G30    29.62F
WARROAD        CLOUDY    39  30  70 S18G26    29.64F
THIEF RVR FALL PTCLDY    39  28  65 S22G29    29.63F
CROOKSTON      MOCLDY    43  30  61 S25G33    29.62F
FOSSTON        MOCLDY    37  27  65 S23G35    29.67F
DETROIT LAKES  PTCLDY    39  30  70 S17G29    29.73F
MOORHEAD       MOCLDY    43  32  65 S23G30    29.67F
PARK RAPIDS    PTCLDY    41  26  55 S21G30    29.77F
MAHNOMEN       FAIR      39  28  66 S21G31    29.68F
$$
MNZ006-009>011-018-025>026-290400-
   North Central Minnesota

CITY           SKY/WX    TMP DP  RH WIND       PRES   REMARKS
BAUDETTE       CLOUDY    39  26  59 S18G30    29.67F
FLAG ISLAND    CLOUDY    36  28  75 S15       29.64S
INTL FALLS     CLOUDY    39  20  46 S14G24    29.75F
WASKISH        MOCLDY    39  27  60 S10G18    29.72F
BIG FORK       CLOUDY    37  21  52 S15G22    29.79F
LONGVILLE      MOCLDY    36  23  60 S16G23    29.82F
GRAND RAPIDS   CLOUDY    36  19  51 S17G31    29.84F
CRANE LAKE     PTCLDY    37  16  41 S9G18     29.83F
ORR            CLOUDY    37  18  44 S14G23    29.79F
COOK           MOCLDY    36  18  48 S14       29.83F
WALKER         FAIR      37  25  62 S16G22    29.78F
$$
MNZ012-019>021-037-290400-
   Northeast Minnesota

CITY           SKY/WX    TMP DP  RH WIND       PRES   REMARKS
DULUTH         PTCLDY    35  16  45 S18G25    29.92F WCI  24
ELY            CLEAR     36  14  41 S13G20    29.85F
HIBBING        MOCLDY    36  17  46 S10G18    29.86F
EVELETH        PTCLDY    34  18  51 S13G20    29.88F WCI  25
DULUTH HARBOR  PTCLDY    37  16  41 S17       29.96F
TWO HARBORS    PTCLDY    37  21  52 S12       29.93S
SILVER BAY     PTCLDY    30  18  59 S6        29.92F WCI  24
GRAND MARAIS     N/A     27  19  72 CALM      29.96F
G MARAIS ARPRT MOCLDY    23  14  68 SE5       29.90F WCI  17
$$
MNZ029>031-032-039>041-046>048-054>057-064-290400-
   West Central Minnesota

CITY           SKY/WX    TMP DP  RH WIND       PRES   REMARKS
FERGUS FALLS   PTCLDY    39  27  60 S22G30    29.77F
WHEATON        MOCLDY    39  28  65 SE21G26   29.74F
MORRIS         CLEAR     37  30  75 SE21      29.78F
ALEXANDRIA     CLEAR     40  27  59 S22G30    29.82F
ELBOW LAKE     FAIR      39  30  69 SE25G32   29.76F
WADENA         PTCLDY    36  27  69 S14G20    29.80F
GLENWOOD       CLEAR     39  28  65 S21       29.85F
APPLETON       CLEAR     43  28  56 SE16      29.80F
BENSON         CLEAR     39  28  65 S16G23    29.83F
ORTONVILLE     CLEAR     39  28  65 SE16      29.76F
MADISON        CLEAR     43  28  56 SE16      29.79F
WILLMAR        FAIR      37  28  70 SE13G18   29.89F
$$
MNZ033>034-036-042>043-049>051-058-059-290400-
   Central Minnesota

CITY           SKY/WX    TMP DP  RH WIND       PRES   REMARKS
ST CLOUD       MOCLDY    35  24  64 SE15      29.92F WCI  25
SAUK CENTRE    FAIR      35  28  74 SE13      29.87F WCI  26
PAYNESVILLE    PTCLDY    35  26  68 E14       29.90F WCI  26
AITKIN         MOCLDY    37  23  56 S13G18    29.87F
PINE RIVER     PTCLDY    36  25  64 S13G18    29.87F
BRAINERD       MOCLDY    36  23  59 S18G26    29.87F
STAPLES        PTCLDY    37  25  60 S13G18    29.83F
LONG PRAIRIE   FAIR      34  28  80 SE16      29.86F WCI  23
LITTLE FALLS   PTCLDY    36  23  60 SE15      29.90S
LITCHFIELD     MOCLDY    39  27  60 SE10G18   29.92F
BUFFALO        CLOUDY    36  25  64 SE9G16    29.96F
MAPLE LAKE     CLOUDY    37  28  70 SE10G18   29.94F
$$
MNZ037-044-045-052-053-290400-
   East Central Minnesota

CITY           SKY/WX    TMP DP  RH WIND       PRES   REMARKS
PRINCETON      CLOUDY    37  23  56 SE14G21   29.95F
MORA           PTCLDY    34  21  60 S14       29.96F WCI  24
CAMBRIDGE      PTCLDY    37  23  56 SE8       29.94F
RUSH CITY      PTCLDY    34  21  57 SE14G20   29.97F WCI  25
MOOSE LAKE     PTCLDY    34  19  55 S12G20    29.92F WCI  25
HINCKLEY       FAIR      34  23  64 S14G22    29.96F WCI  24
CLOQUET        PTCLDY    36  16  44 S9G17     29.91F
MCGREGOR       PTCLDY    36  23  60 S13G20    29.90F
$$
MNZ071>073-080-081-089-090-097-098-290400-
   Southwest Minnesota

CITY           SKY/WX    TMP DP  RH WIND       PRES   REMARKS
MONTEVIDEO     CLEAR     41  30  65 S14G21    29.85F
GRANITE FALLS  CLEAR     39  29  66 SE18      29.87F
CANBY          CLEAR     44  28  51 S15       29.80F
MARSHALL       CLEAR     43  27  52 S20G26    29.84F
REDWOOD FALLS  CLEAR     39  27  62 SE18      29.89F
OLIVIA         CLEAR     37  28  70 SE15G21   29.89F
PIPESTONE      CLEAR     41  27  56 S17G23    29.84F
WINDOM         CLEAR     41  28  60 S14G26    29.92F
WORTHINGTON    CLEAR     39  27  60 S18       29.91F
JACKSON        CLEAR     41  27  56 S20G29    29.95F
TRACY          CLEAR     42  29  61 S18G25    29.85F
SLAYTON        CLEAR     39  26  60 S17       29.88F
$$
MNZ065>067-074>077-082>085-091>093-290400-
   South Central Minnesota

CITY           SKY/WX    TMP DP  RH WIND       PRES   REMARKS
MANKATO        MOCLDY    39  23  52 S17G25    29.98F
NEW ULM        PTCLDY    37  25  60 S16       29.95F
ST JAMES       CLEAR     37  27  65 SE14      29.97F
FAIRMONT       CLEAR     36  19  51 S16       29.97F
GLENCOE        CLOUDY    38  29  69 SE13      29.95F
FARIBAULT      PTCLDY    37  25  60 SE16G24   30.02F
OWATONNA       CLEAR     37  23  56 SE17G23   30.03F
WASECA         PTCLDY    37  25  60 SE12      30.04S
ALBERT LEA     CLEAR     37  21  52 S16       30.04S
$$
MNZ078>079-086>088-094>096-290400-
   Southeast Minnesota

CITY           SKY/WX    TMP DP  RH WIND       PRES   REMARKS
ROCHESTER      FAIR      33  20  58 S14       30.08S WCI  23
RED WING       CLEAR     36  18  48 SE13      30.06F
STANTON        CLEAR     37  22  55 S15G21    30.02F
DODGE CENTER   PTCLDY    34  25  69 S15       30.05F WCI  24
WINONA         CLEAR     34  21  60 SE6       30.12F WCI  29
AUSTIN         CLEAR     36  21  55 S10       30.06S
PRESTON        CLEAR     32  19  59 S13       30.09F WCI  22
$$
ABBREVIATIONS USED IN REMARKS
   TC - TEMPERATURES IN CELSIUS
  WCI - WIND CHILL INDEX
   HX - HEAT INDEX
  VSB - VISIBILITY
$$


USA.gov is the U.S. government's official web portal to all federal, state and local government web resources and services.